Showing default

LILIUM-2, 66679

Orbit data source: Space-Track

LILIUM-2, 66679 is a payload satellite owned by NCKU (TW) in SSO that was launched on Fri, 28 Nov 2025 UTC via an FALCON 9 launch vehicle from the Air Force Western Test Range (AFWTR). Payload-class satellites include a variety of spacecraft equipped with specific instruments for various scientific and technological missions. These include communications satellites like Starlink; space stations such as the ISS; scientific satellites like the Hubble; Earth observation satellites from companies like Planet Labs, Umbra, and HawkEye 360; GPS; miniature CubeSats for education and research; and military/defense satellites.

Loading next visibility...
Identifier
66679, 2025-276P
Orbit
SSO
Country
Flag of TWTW / TWN
Related business
Manufacturer
Satoro
Mission
Operational Amateur Technology
Bus & Motor
CUBESAT 6U, Unknown motor
Mass
12 kg wet, 12 kg dry
Launch date (UTC)
2025-11-28 (2 months ago)
Launch vehicle
FALCON 9
Launch site
Air Force Western Test Range (AFWTR)
Object type
Payload
Rocket body
Debris
Shape & HBR
Box, 0.1 m
Radar Cross Section
0.080 m²

Expand to show TLE details & history
Last TLE update: 15 hours ago

TLE from 15 hours ago
0 LILIUM-2
1 66679U 25276P   26034.45322218  .00003800  00000-0  19517-3 0  9995
2 66679  97.4298 110.1767 0007576 109.0773 251.1282 15.17067835 10117
Epoch: 2026-02-03T10:52Z
TLE epoch observation values (Epoch: 2026-02-03T10:52:38.396Z)
Latitude
0.00003°
Longitude
173.38277°
Altitude
519.487 km
Speed
7.603 km/s
True Right ascension
07h 20m 42s
True Declination
0° 00' 00"
Sunlit
Object was in full shadow at epoch
Visualization orbit readout
Latitude
Unknown
Longitude
Unknown
Altitude
Unknown
Speed
Unknown
Apparent Right ascension
Unknown
Apparent Declination
Unknown
Sunlit
N/A
Visualization observer readout
Local Sidereal Time
04:09:57
Azimuth
Unknown
Elevation
Unknown
Doppler factor
Unknown
Orbital elements
Apogee altitude
516.898 km
Perigee altitude
506.459 km
Semi-major axis
6,889.816 km
Eccentricity
0.00076
Inclination
97.4298°
RAAN
110.1767°
Arg. of periapsis
109.0773°
True anomaly
251.04608°
Mean anomaly
251.1282°
Eccentric anomaly
251.08714°
Mean motion
3.79517 °/min
Orbital period
94.86 mins
BSTAR
0.00019517
Loading maneuver chart data...
Computing Atmospheric mass density...
Loading historical data...
Loading historical data...
Loading historical data...
Loading historical data...
Loading historical data...
Loading historical data...
Loading historical data...

Documentation

Showing up to 5 results
|